Showing default

METEOSAT 11 (MSG 4), 40732

Orbit data source: Space-Track

METEOSAT 11 (MSG 4), 40732 is a payload satellite owned by EUMETSAT (DE) in GEO that was launched on Wed, 15 Jul 2015 UTC via an ARIANE 5ECA launch vehicle from the French Guiana (FRGUI). Payload-class satellites include a variety of spacecraft equipped with specific instruments for various scientific and technological missions. These include communications satellites like Starlink; space stations such as the ISS; scientific satellites like the Hubble; Earth observation satellites from companies like Planet Labs, Umbra, and HawkEye 360; GPS; miniature CubeSats for education and research; and military/defense satellites.

Not visible in the next 10 days
Identifier
40732, 2015-034A
Orbit
GEO
Last TLE update
16 hours ago
Origin
Manufacturer
Thales Alenia
Mission
Operational Civil Weather
Bus & Motor
MSG, S400 X2
Mass
2,043 kg wet, 1,000 kg dry
Launch date (UTC)
2015-07-15 (10 years ago)
Launch vehicle
ARIANE 5ECA
Launch site
French Guiana (FRGUI)
Object type
Payload
Rocket body
Debris
Shape & HBR
Cyl, 3.2 m
Radar Cross Section
9.802 m², Large (>1 m²)

Expand to show TLE details & history

TLE from 16 hours ago
0 METEOSAT 11 (MSG 4)
1 40732U 15034A   25186.36503101  .00000075  00000-0  00000-0 0  9992
2 40732   2.3330  72.3843 0000665 110.3075 241.6018  1.00268263  3733
Epoch: 2025-07-05T08:45Z
TLE epoch observation values (Epoch: 2025-07-05T08:45:38.679Z)
Latitude
-0.31363°
Longitude
9.28203°
Altitude
35,788.442 km
Speed
3.075 km/s
True Right ascension
04h 17m 11s
True Declination
0° 18' 48"
Sunlit
Object was in daylight at epoch
Visualization orbit readout
Latitude
-1.72614°
Longitude
-115.80522°
Altitude
35,788.512 km
Speed
3.075 km/s
Apparent Right ascension
20h 19m 54s
Apparent Declination
-6° 51' 31"
Sunlit
Object is in daylight
Visualization observer readout
Local Sidereal Time
12:19:20
Azimuth
75.107° E
Elevation
-27.325°
Doppler factor
1
Orbital elements
Apogee altitude
35,791.454 km
Perigee altitude
35,785.846 km
Semi-major axis
42,166.787 km
Eccentricity
0.00007
Inclination
2.333°
RAAN
72.3843°
Arg. of periapsis
110.3075°
True anomaly
Unknown
Mean anomaly
241.6018°
Eccentric anomaly
Unknown
Mean motion
0.25066 °/min
Orbital period
1,436.2 mins
BSTAR
0
Loading historical data...
40732 neighbors
Loading maneuver chart data...
Loading SW <> Apogee altitude chart data...
Loading historical data...
Loading historical data...
Loading historical data...
Loading historical data...
Loading historical data...
Loading historical data...
Loading historical data...

METEOSAT 11 (MSG 4) Visibility

Observer location: undefined°, undefined°

METEOSAT 11 (MSG 4) is likely not visible in the next few days
Span
Click to sort rows by Start time (UTC) header in descending order
Start Az.
Max El. time (UTC)
Max El. Az.
Max El.
End time (UTC)
End Az.
|